Location: Sternwarte Stuttgart
(48.7670°N, 9.1830°E)
Time: 03:14:12
(UTC+02:00)

SKYMED 2 - Visible Passes

Search period start: 15 October 2019 00:00
Search period end: 25 October 2019 00:00
Orbit: 621 x 623 km, 97.9° (Epoch: 14 October)

Date Brightness Start Highest point End Pass type
(mag) Time Alt. Az. Time Alt. Az. Time Alt. Az.
15 Oct 4.3 06:07:50 10° SSE 06:12:05 56° ENE 06:16:21 10° N visible
15 Oct 3.5 19:27:18 10° NNE 19:31:39 66° ESE 19:35:58 10° S visible
15 Oct 6.5 21:04:35 10° NNW 21:07:20 17° WNW 21:10:05 10° W visible
16 Oct 6.8 04:52:55 10° E 04:54:37 12° NE 04:56:20 10° NNE visible
16 Oct 3.6 06:25:44 10° SSE 06:30:05 85° ENE 06:34:27 10° NNW visible
16 Oct 3.6 19:45:20 10° NNE 19:49:42 82° WNW 19:54:02 10° SSW visible
16 Oct 6.8 21:23:34 10° NW 21:25:08 12° NW 21:26:43 10° WNW visible
17 Oct 6.5 05:09:38 10° E 05:12:26 17° ENE 05:15:14 10° NNE visible
17 Oct 3.5 06:43:49 10° S 06:48:07 64° WSW 06:52:27 10° NNW visible
17 Oct 4.3 20:03:26 10° N 20:07:42 55° WNW 20:11:56 10° SSW visible
18 Oct 5.9 05:26:48 10° ESE 05:30:16 24° ENE 05:33:45 10° N visible
18 Oct 3.9 07:02:05 10° S 07:06:13 42° W 07:10:22 10° NNW visible
18 Oct 5.1 20:21:38 10° N 20:25:38 37° WNW 20:29:38 10° SW visible
19 Oct 5.3 05:44:16 10° SE 05:48:10 34° ENE 05:52:05 10° N visible
19 Oct 4.1 19:03:28 10° NNE 19:07:33 38° E 19:11:36 10° SSE visible
19 Oct 5.8 20:39:57 10° N 20:43:33 26° WNW 20:47:09 10° WSW visible
20 Oct 4.5 06:01:55 10° SE 06:06:06 49° ENE 06:10:19 10° N visible
20 Oct 3.6 19:21:20 10° NNE 19:25:39 58° E 19:29:55 10° S visible
20 Oct 6.3 20:58:24 10° NNW 21:01:24 19° WNW 21:04:24 10° WSW visible
21 Oct 6.9 04:47:40 10° ENE 04:48:42 11° NE 04:49:45 10° NE visible
21 Oct 3.8 06:19:46 10° SSE 06:24:05 74° ENE 06:28:26 10° N visible
21 Oct 3.5 19:39:19 10° NNE 19:43:42 87° E 19:48:03 10° SSW visible
21 Oct 6.7 21:17:09 10° NNW 21:19:14 13° WNW 21:21:17 10° W visible
22 Oct 6.6 05:03:59 10° E 05:06:30 15° ENE 05:09:00 10° NNE visible
22 Oct 3.5 06:37:47 10° S 06:42:07 74° WSW 06:46:29 10° NNW visible
22 Oct 4.0 19:57:23 10° N 20:01:43 63° WNW 20:06:00 10° SSW visible
23 Oct 6.1 05:21:03 10° ESE 05:24:19 21° ENE 05:27:36 10° NNE visible
23 Oct 3.8 06:55:59 10° S 07:00:11 48° W 07:04:25 10° NNW visible
23 Oct 4.8 20:15:33 10° N 20:19:40 42° WNW 20:23:46 10° SW visible
24 Oct 5.5 05:38:25 10° SE 05:42:12 30° ENE 05:46:00 10° N visible
24 Oct 4.3 07:14:24 10° SSW 07:18:18 32° W 07:22:14 10° NNW visible
24 Oct 4.2 18:57:32 10° NNE 19:01:29 33° E 19:05:26 10° SSE visible
24 Oct 5.5 20:33:49 10° N 20:37:35 29° WNW 20:41:19 10° SW visible
